Temp
70 69 73 73 76 77 77 77 75 75 76 77 77 77 76 75 73 71 70 69 66 64
71 71 73 72 72 75 74 76 75 75 75 75 76 76 75 77 75 74 72 71 70 67
72 72 72 71 70 72 72 73 74 74 74 75 75 76 75 75 75 74 75 74 71 69
71 71 71 70 71 72 72 72 74 74 74 74 74 74 73 73 74 74 73 73 73 72
65 68 69 70 72 73 73 74 75 74 74 75 75 73 73 73 75 74 73 73 73 74
64 65 65 67 68 70 73 73 74 74 74 74 74 74 74 75 74 74 73 73 72 72
66 64 67 68 67 66 70 73 73 73 74 75 75 74 74 73 72 72 72 71 71 72
68 67 67 66 66 68 68 72 74 73 73 73 73 75 73 73 71 70 70 70 72 72
64 64 66 66 67 68 70 69 71 72 72 71 74 59 56 66 71 71 70 68 70 70
67 66 66 66 64 66 66 68 68 69 69 70 70 51 50 53 70 69 68 68 68 68
65 66 68 66 64 63 65 65 66 67 67 67 69 51 48 50 68 68 68 68 67 66
64 64 65 65 65 64 63 63 64 65 66 65 67 50 48 52 67 67 67 68 68 67
62 62 62 64 64 64 64 64 66 65 65 61 65 51 47 52 70 66 68 67 66 52
59 59 60 61 63 63 63 64 63 64 65 65 63 63 46 45 66 69 68 69 69 69
MSLP
1002.95 1003.34 1003.40 1003.61 1003.95 1004.36 1004.65 1004.95 1005.59 1006.12 1006.52 1006.85 1007.29 1007.75 1008.05 1008.40 1008.77 1009.36 1009.85 1010.13 1010.33 1010.67
1002.60 1003.15 1003.39 1003.29 1003.67 1004.07 1004.54 1004.95 1005.43 1005.79 1006.11 1006.48 1006.72 1006.94 1007.39 1007.63 1008.13 1008.43 1008.75 1008.93 1009.45 1009.79
1002.42 1002.87 1003.44 1003.74 1003.70 1004.07 1004.44 1004.86 1005.25 1005.54 1005.79 1006.12 1006.31 1006.41 1006.68 1006.88 1007.15 1007.57 1007.89 1008.31 1008.84 1009.23
1002.78 1003.06 1003.58 1003.73 1003.65 1003.85 1004.29 1004.43 1004.66 1005.07 1005.44 1005.68 1006.01 1006.35 1006.59 1006.68 1006.77 1007.00 1007.51 1008.11 1008.44 1008.62
1002.83 1003.37 1003.61 1003.47 1003.49 1003.71 1003.83 1003.98 1004.26 1004.73 1005.09 1005.61 1005.85 1006.23 1006.33 1006.50 1006.70 1006.91 1007.34 1007.76 1008.13 1008.25
1002.31 1002.88 1003.25 1003.12 1003.16 1003.76 1003.69 1003.81 1004.03 1004.40 1004.85 1005.27 1005.67 1006.00 1006.35 1006.46 1006.63 1006.89 1007.16 1007.53 1007.87 1008.01
1002.02 1002.51 1002.45 1002.62 1002.40 1003.03 1003.60 1003.42 1003.67 1003.95 1004.36 1004.87 1005.45 1005.74 1006.15 1006.43 1006.68 1006.93 1007.13 1007.30 1007.32 1007.25
1002.15 1001.59 1002.02 1001.97 1002.01 1002.26 1002.92 1002.97 1002.71 1003.34 1003.90 1004.43 1004.95 1005.21 1005.70 1006.01 1006.37 1006.75 1006.88 1006.95 1006.91 1006.98
1001.56 1001.14 1001.10 1001.18 1001.33 1001.83 1001.93 1002.06 1002.49 1002.69 1003.13 1003.81 1004.11 1004.57 1005.18 1005.47 1005.76 1006.04 1006.23 1006.44 1006.66 1006.93
1001.04 1000.67 1000.58 1000.71 1001.06 1000.97 1001.18 1001.42 1001.75 1002.22 1002.60 1003.00 1003.52 1004.01 1004.96 1005.23 1005.37 1005.64 1005.80 1006.02 1006.22 1006.39
1000.95 1000.42 1000.19 1000.29 1000.29 1000.52 1000.73 1000.89 1001.11 1001.65 1002.06 1002.46 1002.76 1003.48 1004.23 1005.13 1005.12 1005.19 1005.34 1005.55 1005.78 1005.97
1000.28 1000.03 999.83 999.65 999.69 999.94 1000.20 1000.48 1000.74 1001.18 1001.49 1001.94 1002.05 1002.76 1003.61 1004.31 1004.59 1004.59 1004.68 1004.91 1005.27 1005.49
999.82 999.55 999.35 999.29 999.35 999.41 999.74 999.87 1000.21 1000.57 1000.71 1001.04 1001.56 1001.87 1002.87 1003.66 1003.44 1003.91 1003.98 1004.14 1004.54 1004.94
999.31 999.17 999.12 999.03 998.96 999.04 999.18 999.31 999.43 999.87 1000.00 1000.43 1000.76 1001.09 1002.25 1002.95 1002.83 1002.94 1003.13 1003.15 1003.35 1003.73
Wind_Speed
12 8 9 11 8 6 7 6 8 9 10 12 12 12 12 11 12 14 14 16 10 7
11 11 9 10 9 7 5 5 5 6 8 9 11 13 14 11 13 12 11 9 9 8
10 10 9 9 10 10 9 9 8 8 7 7 8 9 12 11 12 11 9 8 11 10
5 6 8 9 11 12 11 11 10 9 8 8 8 6 7 7 7 8 8 9 9 10
5 6 8 9 6 7 11 11 11 11 10 9 9 7 7 7 7 8 9 9 9 9
7 6 8 9 8 8 8 11 10 11 11 10 10 10 8 8 8 8 7 7 7 7
10 12 14 12 9 12 12 12 12 12 13 12 11 10 9 9 8 7 6 4 3 1
12 9 12 11 12 12 12 13 14 14 14 13 10 9 10 9 9 9 7 5 3 2
10 8 11 12 14 15 17 14 14 16 16 14 10 12 13 10 8 8 6 5 4 4
13 10 10 10 12 14 15 14 16 16 15 15 14 13 14 14 10 9 8 7 6 5
12 12 12 9 10 11 11 13 14 15 15 14 13 13 16 12 11 10 10 10 9 7
14 13 12 12 10 8 9 10 12 13 16 17 15 15 15 15 12 12 12 11 11 10
16 14 14 12 10 8 8 9 9 11 12 14 15 11 15 15 11 12 10 12 12 11
17 15 14 13 12 10 9 8 9 10 9 11 12 12 15 18 13 11 11 10 10 10
Wind_Direction
194 196 192 188 178 190 200 199 176 189 204 218 227 230 225 216 213 208 208 207 205 185
177 182 188 175 173 173 183 198 211 213 213 209 212 216 213 217 207 202 204 212 209 209
188 181 179 172 175 177 181 186 189 203 216 229 221 212 213 218 219 222 229 236 233 224
217 188 189 190 183 178 174 175 179 189 193 198 199 191 184 182 174 194 197 206 220 223
203 217 226 207 190 194 179 177 179 183 188 194 198 192 198 190 194 194 194 198 203 215
187 207 233 233 184 211 209 185 181 181 194 197 193 194 208 215 207 207 206 201 211 225
222 222 222 232 205 184 226 198 185 194 196 198 203 201 200 203 207 201 190 183 195 263
268 236 241 219 210 211 209 213 194 195 202 198 202 203 201 197 194 194 193 187 212 273
284 268 253 245 226 221 217 210 210 200 202 201 201 192 194 195 201 207 216 224 229 263
291 278 258 241 230 226 218 208 207 210 206 205 215 174 196 195 198 205 215 227 242 264
279 278 263 247 227 221 223 220 215 216 214 216 213 185 188 199 217 211 217 226 234 250
277 272 264 258 244 217 207 216 222 222 216 219 223 190 201 182 215 223 223 227 233 239
271 268 264 259 240 218 208 205 211 218 217 219 228 201 204 198 218 226 229 229 235 220
258 258 256 255 244 226 218 229 218 225 219 223 216 219 198 194 217 230 228 235 230 238